La Grande, OR

11:48 PM PST on December 08, 2019 (GMT -0800)
La Grande-Union County

Weather History for KLGD - September, 2019

Change the Weather History Date:

Thursday, September 5, 2019

  Actual Average Record
Temperature  
Mean Temperature 70 °F -  
Max Temperature 91 °F 75 °F 95 °F (1966)
Min Temperature 48 °F 44 °F 33 °F (1969)
Cooling Degree Days 4    
Growing Degree Days 20 (Base 50)    
Moisture  
Dew Point 47 °F    
Average Humidity 46    
Maximum Humidity 77    
Minimum Humidity 22    
Precipitation  
Precipitation 0.00 in - - ()
Sea Level Pressure  
Sea Level Pressure 30.43 in    
Wind  
Wind Speed 6 mph (WNW)    
Max Wind Speed 30 mph    
Max Gust Speed 46 mph    
Visibility 9 miles    
Events Rain    
Averages and records for this station are not official NWS values.
T = Trace of Precipitation, MM = Missing Value Source: NWS Daily Summary

Daily Weather History Graph

Daily Weather History Graph

Search for Another Location

Airport or City:

Astronomy

Sep. 05, 2019 Rise Set
Actual Time 6:18 AM PDT 7:22 PM PDT
Civil Twilight 5:48 AM PDT 7:52 PM PDT
Nautical Twilight 5:11 AM PDT 8:28 PM PDT
Astronomical Twilight 4:33 AM PDT 9:06 PM PDT
Moon 1:50 PM PDT (9/5) 11:20 PM PDT (9/5)
Length of Visible Light 14h 04m
Length of Day
13h 03m
Waxing Crescent, 46% of the Moon is Illuminated
Sep 5
Waxing Crescent
Sep 5
First Quarter
Sep 13
Full
Sep 21
Last Quarter
Sep 28
New

Hourly Weather History & Observations

Time (PDT) Temp. Dew Point Humidity Pressure Visibility Wind Dir Wind Speed Gust Speed Precip Events Conditions
12:56 AM 60.1 °F 45.0 °F 57% 30.44 in 10.0 mi WNW 4.6 mph - N/A   Clear
1:56 AM 57.9 °F 46.0 °F 65% 30.45 in 10.0 mi NW 5.8 mph - N/A   Clear
2:56 AM 55.0 °F 43.0 °F 64% 30.45 in 10.0 mi Calm Calm - N/A   Clear
3:56 AM 55.0 °F 43.0 °F 64% 30.46 in 10.0 mi Calm Calm - N/A   Clear
4:56 AM 54.0 °F 44.1 °F 69% 30.47 in 10.0 mi SW 3.5 mph - N/A   Clear
5:56 AM 48.0 °F 41.0 °F 77% 30.48 in 10.0 mi South 4.6 mph - N/A   Clear
6:56 AM 55.0 °F 45.0 °F 69% 30.49 in 10.0 mi West 3.5 mph - N/A   Clear
7:56 AM 57.0 °F 45.0 °F 64% 30.51 in 10.0 mi Calm Calm - N/A   Clear
8:56 AM 63.0 °F 46.9 °F 56% 30.51 in 10.0 mi NW 4.6 mph - 0.00 in   Partly Cloudy
9:56 AM 66.9 °F 45.0 °F 45% 30.52 in 10.0 mi Calm Calm - N/A   Clear
10:56 AM 70.0 °F 44.1 °F 39% 30.50 in 10.0 mi Calm Calm - N/A   Clear
11:56 AM 73.9 °F 45.0 °F 35% 30.50 in 10.0 mi NW 4.6 mph - N/A   Clear
12:56 PM 80.1 °F 46.9 °F 31% 30.47 in 10.0 mi Variable 3.5 mph - N/A   Clear
1:56 PM 84.0 °F 48.9 °F 29% 30.45 in 10.0 mi North 6.9 mph - N/A   Clear
2:56 PM 88.0 °F 48.9 °F 26% 30.42 in 10.0 mi NNW 4.6 mph - N/A   Clear
3:56 PM 91.0 °F 46.9 °F 22% 30.39 in 10.0 mi ENE 6.9 mph - N/A   Clear
4:56 PM 88.0 °F 50.0 °F 27% 30.37 in 10.0 mi North 6.9 mph - N/A   Clear
5:56 PM 86.0 °F 51.1 °F 30% 30.38 in 10.0 mi WNW 5.8 mph - N/A   Clear
6:56 PM 82.9 °F 46.0 °F 27% 30.38 in 10.0 mi West 12.7 mph - N/A   Clear
7:39 PM 80.6 °F 44.6 °F 28% 30.01 in 1.8 mi West 29.9 mph 46.0 mph N/A   Haze
7:46 PM 78.8 °F 46.4 °F 32% 30.02 in 3.0 mi West 27.6 mph 42.6 mph N/A   Haze
7:56 PM 77.0 °F 48.9 °F 37% 30.43 in 6.0 mi NW 27.6 mph 39.1 mph N/A   Haze
8:56 PM 73.0 °F 51.1 °F 46% 30.46 in 10.0 mi West 21.9 mph 29.9 mph N/A   Partly Cloudy
9:56 PM 75.0 °F 50.0 °F 41% 30.52 in 10.0 mi WSW 11.5 mph - N/A   Overcast
10:56 PM 71.1 °F 51.1 °F 49% 30.55 in 10.0 mi ESE 8.1 mph - N/A   Mostly Cloudy
11:56 PM 68.0 °F 55.0 °F 63% 30.54 in 10.0 mi Calm Calm - 0.00 in Rain Light Rain